Tillbaka till svenska Fidonet
English   Information   Debug  
FILM   0/18
FNEWS_PUBLISH   4178
FN_SYSOP   41525
FN_SYSOP_OLD1   71952
FTP_FIDO   0/2
FTSC_PUBLIC   0/13569
FUNNY   0/4886
GENEALOGY.EUR   0/71
GET_INFO   105
GOLDED   0/408
HAM   0/16052
HOLYSMOKE   0/6791
HOT_SITES   0/1
HTMLEDIT   0/71
HUB203   466
HUB_100   264
HUB_400   39
HUMOR   0/29
IC   0/2851
INTERNET   0/424
INTERUSER   0/3
IP_CONNECT   719
JAMNNTPD   0/233
JAMTLAND   0/47
KATTY_KORNER   0/41
LAN   0/16
LINUX-USER   0/19
LINUXHELP   0/1155
LINUX   0/22010
LINUX_BBS   0/957
mail   18.68
mail_fore_ok   249
MENSA   0/341
MODERATOR   0/102
MONTE   0/992
MOSCOW_OKLAHOMA   0/1245
MUFFIN   0/783
MUSIC   0/321
N203_STAT   898
N203_SYSCHAT   313
NET203   321
NET204   69
NET_DEV   0/10
NORD.ADMIN   0/101
NORD.CHAT   0/2572
NORD.FIDONET   189
NORD.HARDWARE   0/28
NORD.KULTUR   0/114
NORD.PROG   0/32
NORD.SOFTWARE   0/88
NORD.TEKNIK   0/58
NORD   0/453
OCCULT_CHAT   0/93
OS2BBS   0/787
OS2DOSBBS   0/580
OS2HW   0/42
OS2INET   0/37
OS2LAN   0/134
OS2PROG   0/36
OS2REXX   0/113
OS2USER-L   207
OS2   0/4784
OSDEBATE   0/18996
PASCAL   0/490
PERL   0/457
PHP   0/45
POINTS   0/405
POLITICS   0/29554
POL_INC   0/14731
PSION   103
R20_ADMIN   1117
R20_AMATORRADIO   0/2
R20_BEST_OF_FIDONET   13
R20_CHAT   0/893
R20_DEPP   0/3
R20_DEV   399
R20_ECHO2   1379
R20_ECHOPRES   0/35
R20_ESTAT   0/719
R20_FIDONETPROG...
...RAM.MYPOINT
  0/2
R20_FIDONETPROGRAM   0/22
R20_FIDONET   0/248
R20_FILEFIND   0/24
R20_FILEFOUND   0/22
R20_HIFI   0/3
R20_INFO2   2736
R20_INTERNET   0/12940
R20_INTRESSE   0/60
R20_INTR_KOM   0/99
R20_KANDIDAT.CHAT   42
R20_KANDIDAT   28
R20_KOM_DEV   112
R20_KONTROLL   0/13050
R20_KORSET   0/18
R20_LOKALTRAFIK   0/24
R20_MODERATOR   0/1852
R20_NC   76
R20_NET200   245
R20_NETWORK.OTH...
...ERNETS
  0/13
R20_OPERATIVSYS...
...TEM.LINUX
  0/44
R20_PROGRAMVAROR   0/1
R20_REC2NEC   534
R20_SFOSM   0/340
R20_SF   0/108
R20_SPRAK.ENGLISH   0/1
R20_SQUISH   107
R20_TEST   2
R20_WORST_OF_FIDONET   12
RAR   0/9
RA_MULTI   106
RA_UTIL   0/162
REGCON.EUR   0/2055
REGCON   0/13
SCIENCE   0/1206
SF   0/239
SHAREWARE_SUPPORT   0/5146
SHAREWRE   0/14
SIMPSONS   0/169
STATS_OLD1   0/2539.065
STATS_OLD2   0/2530
STATS_OLD3   0/2395.095
STATS_OLD4   0/1692.25
SURVIVOR   0/495
SYSOPS_CORNER   0/3
SYSOP   0/84
TAGLINES   0/112
TEAMOS2   0/4530
TECH   0/2617
TEST.444   0/105
TRAPDOOR   0/19
TREK   0/755
TUB   0/290
UFO   0/40
UNIX   0/1316
USA_EURLINK   0/102
USR_MODEMS   0/1
VATICAN   0/2740
VIETNAM_VETS   0/14
VIRUS   0/378
VIRUS_INFO   0/201
VISUAL_BASIC   0/473
WHITEHOUSE   0/5187
WIN2000   0/101
WIN32   0/30
WIN95   0/4276
WIN95_OLD1   0/70272
WINDOWS   0/1517
WWB_SYSOP   0/419
WWB_TECH   0/810
ZCC-PUBLIC   0/1
ZEC   4

 
4DOS   0/134
ABORTION   0/7
ALASKA_CHAT   0/506
ALLFIX_FILE   0/1313
ALLFIX_FILE_OLD1   0/7997
ALT_DOS   0/152
AMATEUR_RADIO   0/1039
AMIGASALE   0/14
AMIGA   0/331
AMIGA_INT   0/1
AMIGA_PROG   0/20
AMIGA_SYSOP   0/26
ANIME   0/15
ARGUS   0/924
ASCII_ART   0/340
ASIAN_LINK   0/651
ASTRONOMY   0/417
AUDIO   0/92
AUTOMOBILE_RACING   0/105
BABYLON5   0/17862
BAG   135
BATPOWER   0/361
BBBS.ENGLISH   0/382
BBSLAW   0/109
BBS_ADS   0/5290
BBS_INTERNET   0/507
BIBLE   0/3563
BINKD   0/1119
BINKLEY   0/215
BLUEWAVE   0/2173
CABLE_MODEMS   0/25
CBM   0/46
CDRECORD   0/66
CDROM   0/20
CLASSIC_COMPUTER   0/378
COMICS   0/15
CONSPRCY   0/899
COOKING   28146
COOKING_OLD1   0/24719
COOKING_OLD2   0/40862
COOKING_OLD3   0/37489
COOKING_OLD4   0/35496
COOKING_OLD5   9370
C_ECHO   0/189
C_PLUSPLUS   0/31
DIRTY_DOZEN   0/201
DOORGAMES   0/2006
DOS_INTERNET   0/196
duplikat   6000
ECHOLIST   0/18295
EC_SUPPORT   0/318
ELECTRONICS   0/359
ELEKTRONIK.GER   1534
ENET.LINGUISTIC   0/13
ENET.POLITICS   0/4
ENET.SOFT   0/11701
ENET.SYSOP   33794
ENET.TALKS   0/32
ENGLISH_TUTOR   0/2000
EVOLUTION   0/1335
FDECHO   0/217
FDN_ANNOUNCE   0/7068
FIDONEWS   23490
FIDONEWS_OLD1   0/49742
FIDONEWS_OLD2   0/35949
FIDONEWS_OLD3   0/30874
FIDONEWS_OLD4   0/37224
FIDO_SYSOP   12841
FIDO_UTIL   0/180
FILEFIND   0/209
FILEGATE   0/212
Möte HAM, 16052 texter
 lista första sista föregående nästa
Text 2552, 745 rader
Skriven 2008-10-10 00:00:24 av Amsat List (1:323/120.0)
Ärende: [keps]  orb08283.amsa
=============================
[keps]  orb08283.amsa

Return-Path: <keps-bounces@amsat.org>
X-Rcpt: craig.healy@chowda.com
X-UIDL: 1223610590.32799

SB KEPS @ AMSAT  $ORB08283.O
Orbital Elements  08283.OSCAR

HR AMSAT ORBITAL ELEMENTS FOR OSCAR SATELLITES
FROM WA5QGD FORT WORTH,TX October 9, 2008
Send Subscribe/unsubscribe to KEPS at 
http://www.amsat.org/mailman/listinfo/keps
BID: ORB08283.O
TO ALL RADIO AMATEURS BT

Satellite: AO-07
Catalog number: 07530
Epoch time:      08283.65627308
Element set:     297
Inclination:      101.4568 deg
RA of node:       311.2861 deg
Eccentricity:    0.0012054
Arg of perigee:   039.2337 deg
Mean anomaly:     320.9603 deg
Mean motion:   12.53574392 rev/day
Decay rate:       -2.7e-07 rev/day^2
Epoch rev:           55132
Checksum:              285

Satellite: AO-10
Catalog number: 14129
Epoch time:      08283.29233616
Element set:     571
Inclination:      026.0321 deg
RA of node:       191.7075 deg
Eccentricity:    0.5961881
Arg of perigee:   163.6759 deg
Mean anomaly:     229.9048 deg
Mean motion:   02.05869572 rev/day
Decay rate:      -2.53e-06 rev/day^2
Epoch rev:           19045
Checksum:              321

Satellite: UO-11
Catalog number: 14781
Epoch time:      08282.52361380
Element set:     782
Inclination:      098.1437 deg
RA of node:       318.1897 deg
Eccentricity:    0.0010141
Arg of perigee:   070.9352 deg
Mean anomaly:     289.2961 deg
Mean motion:   14.79666129 rev/day
Decay rate:      -1.77e-06 rev/day^2
Epoch rev:           32061
Checksum:              316

Satellite: RS-15
Catalog number: 23439
Epoch time:      08282.62783306
Element set:    0165
Inclination:      064.8193 deg
RA of node:       311.6108 deg
Eccentricity:    0.0145852
Arg of perigee:   100.7618 deg
Mean anomaly:     260.9761 deg
Mean motion:   11.27552393 rev/day
Decay rate:       -3.9e-07 rev/day^2
Epoch rev:           56775
Checksum:              316

Satellite: FO-29
Catalog number: 24278
Epoch time:      08282.78602685
Element set:    0886
Inclination:      098.5746 deg
RA of node:       184.1627 deg
Eccentricity:    0.0349818
Arg of perigee:   281.5509 deg
Mean anomaly:     074.6557 deg
Mean motion:   13.52939730 rev/day
Decay rate:       -7.5e-07 rev/day^2
Epoch rev:           59975
Checksum:              384

Satellite: SO-33
Catalog number: 25509
Epoch time:      08282.63443417
Element set:    0298
Inclination:      031.4356 deg
RA of node:       034.8829 deg
Eccentricity:    0.0354908
Arg of perigee:   298.9806 deg
Mean anomaly:     057.5678 deg
Mean motion:   14.28226793 rev/day
Decay rate:      -1.17e-06 rev/day^2
Epoch rev:           51984
Checksum:              354

Satellite: AO-40
Catalog number: 26609
Epoch time:      08281.84317556
Element set:    0132
Inclination:      007.8930 deg
RA of node:       056.3693 deg
Eccentricity:    0.7937776
Arg of perigee:   131.2361 deg
Mean anomaly:     330.6936 deg
Mean motion:   01.25586975 rev/day
Decay rate:      -3.96e-06 rev/day^2
Epoch rev:           03645
Checksum:              338

Satellite: VO-52
Catalog number: 28650
Epoch time:      08282.87510629
Element set:    0051
Inclination:      097.7770 deg
RA of node:       346.2937 deg
Eccentricity:    0.0028035
Arg of perigee:   128.4219 deg
Mean anomaly:     231.9557 deg
Mean motion:   14.81504640 rev/day
Decay rate:       -3.5e-07 rev/day^2
Epoch rev:           18543
Checksum:              314

Satellite: PO-63
Catalog number: 29712
Epoch time:      08282.78876581
Element set:    0864
Inclination:      097.8634 deg
RA of node:       338.7786 deg
Eccentricity:    0.0014731
Arg of perigee:   016.8586 deg
Mean anomaly:     343.3112 deg
Mean motion:   14.80287227 rev/day
Decay rate:       4.84e-06 rev/day^2
Epoch rev:           09427
Checksum:              353

/EX
SB KEPS @ AMSAT  $ORB08283.D
Orbital Elements  08283.MICROS

HR AMSAT ORBITAL ELEMENTS FOR THE MICROSATS
FROM WA5QGD FORT WORTH,TX October 9, 2008
Send Subscribe/unsubscribe to KEPS at 
http://www.amsat.org/mailman/listinfo/keps
BID: ORB08283.D
TO ALL RADIO AMATEURS BT

Satellite: AO-16
Catalog number: 20439
Epoch time:      08283.46846579
Element set:     436
Inclination:      098.2452 deg
RA of node:       257.7697 deg
Eccentricity:    0.0010557
Arg of perigee:   191.8752 deg
Mean anomaly:     168.2210 deg
Mean motion:   14.31804543 rev/day
Decay rate:        7.0e-08 rev/day^2
Epoch rev:           97727
Checksum:              336

Satellite: LO-19
Catalog number: 20442
Epoch time:      08283.56671627
Element set:     359
Inclination:      098.2145 deg
RA of node:       266.0420 deg
Eccentricity:    0.0011745
Arg of perigee:   189.2662 deg
Mean anomaly:     170.8293 deg
Mean motion:   14.32041681 rev/day
Decay rate:      -1.32e-06 rev/day^2
Epoch rev:           97744
Checksum:              309

Satellite: AO-27
Catalog number: 22825
Epoch time:      08282.47232136
Element set:    0079
Inclination:      098.3998 deg
RA of node:       238.3219 deg
Eccentricity:    0.0007520
Arg of perigee:   288.9450 deg
Mean anomaly:     071.0920 deg
Mean motion:   14.29248549 rev/day
Decay rate:        4.7e-07 rev/day^2
Epoch rev:           78395
Checksum:              337

Satellite: IO-26
Catalog number: 22826
Epoch time:      08282.85660894
Element set:    0793
Inclination:      098.3928 deg
RA of node:       239.5529 deg
Eccentricity:    0.0008114
Arg of perigee:   284.2511 deg
Mean anomaly:     075.7785 deg
Mean motion:   14.29497979 rev/day
Decay rate:       -1.2e-07 rev/day^2
Epoch rev:           78410
Checksum:              359

